Погода в Байряки-Тамаке

Россия / Республика Татарстан     54°43′42″N   53°28′56″E
темп.,
°C
ветер,
м/с
пор.,
м/с
влажн.,
%
обл.,
%
осадки,
мм/ч
давл.,
гПа
погр.,
м
5 декабря, вс
вс500:000зюз41096100 2.0 1011615
03:00−1юз4891100 2.6 1012541
06:00−1з4887100 0.1 1012579
09:00−2з378797 0.1 1014466
12:00−2з468078 0.0 1015705
15:00−3з3584100 0.0 1017251
18:00−3з2485100 0.0 1018277
21:00−3з2485100 0.0 1019249
6 декабря, пн
пн600:00−4сз2486100 0.0 1019262
03:00−3сз358479 0.0 1020476
06:00−5ссз468673 0.0 1022495
09:00−6ссз457971 0.0 1024490
12:00−6ссз467377 0.0 1025609
15:00−7ссз357225 0.0 1027479
18:00−9с357128 0.0 1029423
21:00−9с23756 0.0 1030340
7 декабря, вт
вт700:00−10с2376100 0.0 1031313
03:00−9ссв2275100 0.0 1033299
06:00−10св23805 0.0 1033171
09:00−10в22795 0.0 1035213
12:00−9вюв23735 0.0 1035303
15:00−9вюв248286 0.0 1035196
18:00−10вюв268386 0.0 1036206
21:00−9юв278166 0.0 1035226
8 декабря, ср
ср800:00−9юв2678100 0.0 1034197
03:00−8юв4116799 0.0 1033295
06:00−7ююв51373100 0.0 1032338
09:00−5ю61484100 0.0 1032414
12:00−3ю61592100 0.0 1031509
15:00−2ю61391100 0.0 1031451
18:00−2ю61389100 0.0 1030395
21:00−2ю51389100 0.0 1030402
9 декабря, чт
чт900:00−2ю51289100 0.0 1031371
03:00−2ю41187100 0.0 1031332
06:00−3ююв41186100 0.0 1031317
09:00−2ююв51281100 0.0 1031328
12:00−1ююв51374100 0.0 1030394
15:00−2ююв41180100 0.0 1030302
18:00−3ююв41278100 0.0 1029299
21:00−3ююв41277100 0.0 1029327